Current Version              Previous Version:    01  02  03  04  05  06  07  08  09  10  11  12  13  14  15  16  17  18  19  20  21  22  23  24  25  26  27  28  29  30  
   31  32  33  34  35  36  37  38  39  40  41  42  43  44  45  46  47  48  49  50  51  52  53  54  55  56  57  58  59  60  

[Printable]
821
ASUS44 KLUB 290110
RWRTX
WEST TEXAS WEATHER ROUNDUP
NATIONAL WEATHER SERVICE LUBBOCK TX
800 PM CDT MON JUL 28 2014

NOTE: "FAIR" INDICATES FEW OR NO CLOUDS BELOW 12,000 FEET WITH NO
SIGNIFICANT WEATHER AND/OR OBSTRUCTIONS TO VISIBILITY.

TXZ004-006>008-010-012-014-016-OKZ002-290200-
TEXAS PANHANDLE/OKLAHOMA PANHANDLE

CITY           SKY/WX    TMP DP  RH WIND       PRES   REMARKS
AMARILLO       MOCLDY    75  63  66 SE9       30.26S
BORGER         CLOUDY    75  60  59 E5        30.25S
CANADIAN       MOCLDY    76  62  59 E5        30.21S
DALHART        PTSUNNY   76  63  64 SE9       30.28S
DUMAS          MOCLDY    72  62  71 E8        30.26F
GUYMON         CLOUDY    72  60  66 S7        30.25S
HEREFORD       PTCLDY    74  68  82 E6        30.26F
PAMPA          MOCLDY    72  61  68 SE3       30.26S
PERRYTON       PTCLDY    74  56  52 SW6       30.25R
$$

TXZ026-029-035-045-048-290200-
SOUTHERN PANHANDLE/SOUTH PLAINS/ROLLING PLAINS

CITY           SKY/WX    TMP DP  RH WIND       PRES   REMARKS
CHILDRESS      MOCLDY    75  64  68 E5        30.19S
SEMINOLE       PTCLDY    87  60  40 E18       30.18S
LUBBOCK        PTCLDY    82  63  52 E15       30.21R
PLAINVIEW      PTCLDY    78  66  67 E10       30.22S
SNYDER         PTCLDY    86  64  47 E13       30.15R
$$

TXZ052-054-060>062-072-078-127-140-154-169-290200-
PERMIAN BASIN/CONCHO VALLEY/BIG COUNTRY/EDWARDS PLATEAU

CITY           SKY/WX    TMP DP  RH WIND       PRES   REMARKS
ABILENE        MOCLDY    88  63  43 E15       30.11F
BIG SPRING     PTCLDY    88  61  40 E20       30.15R
BRADY          CLEAR     88  70  55 NE14      30.08S
BROWNWOOD      CLOUDY    84  70  61 NE9       30.09S
JUNCTION       MOCLDY    94  56  27 SE8       30.05S
MIDLAND        CLEAR     88  64  44 E23G31    30.12S
ODESSA         CLEAR     88  63  43 E22G29    30.13R
SAN ANGELO     CLEAR     89  66  46 E20G29    30.07R
SONORA         PTCLDY    95  55  26 E10       30.10S
SWEETWATER     PTCLDY    87  62  42 E10       30.17S
WINK           PTCLDY    95  59  30 E17       30.06R
$$

TXZ055-058-074-075-080-082-290200-
FAR WEST/SOUTHWEST MOUNTAINS/TRANS PECOS

CITY           SKY/WX    TMP DP  RH WIND       PRES   REMARKS
ALPINE         PTCLDY    84  53  33 SE14      30.25S
DRYDEN           N/A     97  51  21 E14       30.05S
EL PASO        PTSUNNY   90  53  28 E13       30.11F
FORT STOCKTON  PTCLDY    92  54  27 SE14      30.10R
GUADALUPE PASS SUNNY     82  49  31 E15       30.28F
MARFA          CLOUDY    81  57  44 E10       30.24S
PECOS          PTCLDY    95  54  24 E16G22    30.05S
PRESIDIO       FAIR      91  58  32 N3        30.03F
$$

TXZ014-016-019-021>030-083-290200
TEXAS TECH WEST TEXAS MESONET/TEXAS PANHANDLE/NORTHERN SOUTH PLAINS

CITY           SKY/WX    TMP DP  RH WIND       PRES   REMARKS
ABERNATHY 5ENE   N/A     78  64  60 E12       30.23R
AMARILLO 9NNE    N/A     74  65  71 SE6       30.24S
AMARILLO 7SSE    N/A     72  62  71 SE8       30.26F
AMHERST 1NE      N/A     79  64  59 E12       30.24R
BOOTLEG 11WNW    N/A     74  64  69 E8        30.31S
CANADIAN 6E      N/A     73  63  71 NE5       30.21R
CAPROCK CYN SP   N/A     71  65  83 NE2       30.22R
CHILDRESS 2NNE   N/A     74  64  69 NE5       30.18S
CLARENDON 2WSW   N/A     74  62  66 E6        30.22S
CLAUDE 12SW      N/A     71  63  74 SE7       30.25S
DIMMITT 2NE      N/A     74  65  75 E7        30.26S
FLOYDADA 2NNE    N/A     76  64  65 E10       30.22S
FRIONA 2NE       N/A     75  64  68 SE12      30.26F
GOODLETT 3W      N/A     74  62  65 NE5       30.16S
HART 3N          N/A     75  64  67 E7        30.25S
HEREFORD 2NW     N/A     72  65  77 E6        30.26S
MCLEAN 1E        N/A     73  61  66 SE5       30.21S
MEMPHIS 1NE      N/A     74  62  65 E3        30.18F
MULESHOE 2SSW    N/A     78  62  58 E10       30.24S
OLTON 6S         N/A     77  63  62 E12       30.23R
PALO DURO SP     N/A     72  62  71 SE7       30.26S
PAMPA 2E         N/A     73  63  72 SE6       30.25R
PLAINVIEW 1S     N/A     77  65  66 E9        30.22S
SILVERTON 7ESE   N/A     70  65  84 E5        30.23S
TULIA 2ENE       N/A     74  65  74 E9        30.24S
TURKEY 2WSW      N/A     73  65  75 NE6       30.19F
UMBARGER 3NNE    N/A     72  63  72 SE8       30.27S
$$

TXZ033>036-039>041-045>048-290200
TEXAS TECH WEST TEXAS MESONET/SOUTH PLAINS

CITY           SKY/WX    TMP DP  RH WIND       PRES   REMARKS
AIKEN 3WSW       N/A     75  66  71 E9        30.24S
ANTON 6SSW       N/A     82  64  54 E14       30.21S
BROWNFIELD 2S    N/A     83  61  47 E14       30.20S
DENVR CTY 7WNW   N/A     84  57  39 E15       30.20S
GAIL 2ESE        N/A     86  63  45 E13       30.14S
LAMESA 2SE       N/A     85  62  45 E10       30.17S
LEVELLAND 4S     N/A     83  61  47 E10       30.21S
LUBBOCK 3WNW     N/A     82  62  50 E12       30.21R
MORTON 1ENE      N/A     80  63  54 E12       30.23S
ODONNELL 1N      N/A     84  61  44 E13       30.18R
PLAINS 3N        N/A     83  61  45 E15       30.22R
RALLS 1SE        N/A     79  64  59 E13       30.22R
REESE CENTER     N/A     82  62  51 E15       30.21R
SEAGRAVES 1SW    N/A     85  61  43 E9        30.19R
SEMINOLE 2NNE    N/A     86  60  40 E16       30.17R
SLATON 2NE       N/A     81  62  52 E14       30.21R
SNYDER 3E        N/A     86  63  45 E12       30.14R
SUNDOWN 8SW      N/A     83  62  47 E10       30.22R
TAHOKA 3NNE      N/A     83  61  47 E12       30.19R
WOLFFORTH 6SSW   N/A     83  62  48 E12       30.21R
$$

TXZ031-032-036>038-042>044-290200-
TEXAS TECH WEST TEXAS MESONET/ROLLING PLAINS

CITY           SKY/WX    TMP DP  RH WIND       PRES   REMARKS
ASPERMONT 3NE    N/A     86  64  47 NE10      30.13S
FLUVANNA 3WNW    N/A     85  61  45 E14       30.16R
GRAHAM 5SSW      N/A     83  61  46 E14       30.17S
GUTHRIE 10WSW    N/A     82  64  55 E9        30.16R
HASKELL 1NW      N/A     83  61  46 E10       30.13R
JAYTON 1SSE      N/A     84  63  49 E9        30.14S
KNOX CITY 3NW    N/A     82  60  47 NE13      30.14R
LK A HENRY 1NW   N/A     85  64  48 E12       30.14S
NORTHFIELD 1S    N/A     77  62  59 E6        30.18S
ODELL 4ENE       N/A     76  66  69 E1        30.16S
PADUCAH 10SW     N/A     78  62  58 NE9       30.17S
POST 1NE         N/A     84  61  45 E13       30.16S
RRING SPRGS 3N   N/A     77  65  65 E8        30.20S
SEYMOUR 3NW      N/A     79  56  45 NE7       30.14R
SPUR 1W          N/A     82  62  51 NE12      30.16S
WEINERT 2NNE     N/A     81  64  55 NE9       30.13S
WHITE RVR 6NE    N/A     81  63  54 E13       30.18S
$$

TXZ052-054-060>062-072-078-127-140-154-169-290200-
TEXAS TECH WEST TEXAS MESONET/PERMIAN BASIN/
CONCHO VALLEY/BIG COUNTRY/EDWARDS PLATEAU

CITY           SKY/WX    TMP DP  RH WIND       PRES   REMARKS
COYANOSA 2N      N/A     96  56  26 E15       30.06S
JUNCTION 1SSW    N/A     93  59  31 SE7       30.05S
MERTZON 3NNE     N/A     89  66  47 NE12G22   30.09R
SAN ANGELO 7NW   N/A     88  63  42 NE18      30.09R
STRLNG CT 4WSW   N/A     87  65  48 NE15      30.12R
ST LAWRNCE 5SW   N/A     89  61  39 NE20      30.10S
SWEETWATR 11SW   N/A     85  64  49 E13       30.15S
WALL 1E          N/A     87  65  47 NE21      30.09R
$$

TXZ055-058-074-075-080-082-290200-
TEXAS TECH WEST TEXAS MESONET/FAR WEST/SOUTHWEST MOUNTAINS/TRANS PECOS

CITY           SKY/WX    TMP DP  RH WIND       PRES   REMARKS
PRSMN GAP BBNP   N/A     93  53  26 NE13      30.07R
GUADLPE MTN NP   N/A     80  49  32 E8        30.29S
$$